Location: Newark
(8.1700°N, 77.4300°E)
Time: 22:14:36
(UTC+00:00)

Hubble Space Telescope - Pass Details

Date: 26 August 2019
Orbit: 536 x 540 km, 28.5° (Epoch: 19 September)

Event Time Altitude Azimuth Distance (km) Brightness Sun altitude
Rises 14:19:10 0° 310° (NW) 2,663 5.5 -19.6°
Reaches altitude 10° 14:21:32 10° 318° (NW) 1,773 4.2 -20.2°
Maximum altitude 14:25:21 37° 27° (NNE) 835 1.6 -21.1°
Enters shadow 14:25:29 37° 32° (NNE) 836 1.5 -21.1°
